Tracking 25734 objects as of 28-May-2022
HD Live streaming from Space Station
objects crossing your sky now

CZ-2C DEB

Track CZ-2C DEB now!
10-day predictions


NORAD ID: 43534
Int'l Code: 2018-056F
Perigee: 589.4 km
Apogee: 623.3 km
Inclination: 98.0 °
Period: 96.7 minutes
Semi major axis: 6977 km
RCS: Unknown
Launch date: July 9, 2018
Source: People's Republic of China (PRC)
Launch site: Jiuquan Satellite Launch Center, China (JSC)

Note: This is SATELLITE DEBRIS
aabbcc
Your satellite tracking list
Your tracking list is empty




NASA's NSSDC Master Catalog

Two Line Element Set (TLE):
1 43534U 18056F   22147.52352415  .00002793  00000-0  29723-3 0  9999
2 43534  97.9958 252.8706 0024282 312.9374  46.9805 14.89579281210958
Source of the keplerian elements: AFSPC